This is the latest recevied weather packets stored in our database for station/object OE6ACM-10. If no packets are shown the sender has not sent any weather packets the latest 10 day(s).
| Time | Temp. | Humidity | Pressure | Rain* | Wind** | Luminosity | Snow |
|---|---|---|---|---|---|---|---|
| 1777902188 | 47.22° C | 26% | 922.8 hPa | - | - | - | - |
| 1777901888 | 46.11° C | 26% | 922.8 hPa | - | - | - | - |
| 1777901588 | 45.56° C | 26% | 922.9 hPa | - | - | - | - |
| 1777901288 | 46.67° C | 26% | 922.9 hPa | - | - | - | - |
| 1777900988 | 45° C | 26% | 923 hPa | - | - | - | - |
| 1777900688 | 45.56° C | 28% | 923.2 hPa | - | - | - | - |
| 1777900388 | 46.11° C | 28% | 923.2 hPa | - | - | - | - |
| 1777900088 | 46.67° C | 32% | 923.2 hPa | - | - | - | - |
| 1777899788 | 45° C | 29% | 923.3 hPa | - | - | - | - |
| 1777899488 | 45.56° C | 31% | 923.4 hPa | - | - | - | - |
| 1777899188 | 43.89° C | 29% | 923.4 hPa | - | - | - | - |
| 1777898888 | 44.44° C | 28% | 923.4 hPa | - | - | - | - |
| 1777898588 | 43.33° C | 31% | 923.5 hPa | - | - | - | - |
| 1777898288 | 41.67° C | 29% | 923.6 hPa | - | - | - | - |
| 1777897988 | 42.78° C | 33% | 923.7 hPa | - | - | - | - |
| 1777897688 | 41.67° C | 30% | 923.7 hPa | - | - | - | - |
| 1777897388 | 41.67° C | 36% | 923.9 hPa | - | - | - | - |
| 1777897088 | 41.67° C | 33% | 923.9 hPa | - | - | - | - |
| 1777896788 | 40° C | 31% | 923.9 hPa | - | - | - | - |
| 1777896488 | 40.56° C | 33% | 923.9 hPa | - | - | - | - |
| 1777896188 | 38.89° C | 33% | 924.1 hPa | - | - | - | - |
| 1777895888 | 38.33° C | 40% | 924.1 hPa | - | - | - | - |
| 1777895588 | 37.22° C | 41% | 924.1 hPa | - | - | - | - |
| 1777895288 | 36.11° C | 41% | 924.1 hPa | - | - | - | - |
| 1777894988 | 35° C | 42% | 924.2 hPa | - | - | - | - |
* Rain since midnight (hover to see other rain measurements)
** Current wind speed in m/s (hover to see current wind gust speed)